Regional Weather Roundup
Issued by NWS Albany, NY

Home | Current Version | Previous Version | Text Only | Print | Product List | Glossary On
Versions: 1 2 3 4 5 6 7 8 9 10 11 12 13 14 15 16 17 18 19 20 21 22 23 24 25 26 27
000
ASUS41 KALY 200910
RWRALY

NEW YORK STATE HOURLY WEATHER ROUNDUP
NATIONAL WEATHER SERVICE ALBANY NY
500 AM EDT SUN MAY 20 2018

NOTE: "FAIR" INDICATES FEW OR NO CLOUDS BELOW 12,000 FEET WITH NO
SIGNIFICANT WEATHER AND/OR NO OBSTRUCTIONS TO VISIBILITY.

NYZ032-033-038>043-046>054-057>066-NYZ062>081-082-084-201000-
EAST


CITY           SKY/WX    TMP DP  RH WIND       PRES   REMARKS
ALBANY         MOCLDY    59  56  89 S14       29.88F
GLENS FALLS    CLOUDY    55  55 100 S5        29.88F
POUGHKEEPSIE   CLOUDY    57  55  93 CALM      29.94F
NEWBURGH       CLOUDY    55  55 100 VRB5      29.96F FOG
MONTGOMERY     CLOUDY    55  54  96 CALM      29.94F
WHITE PLAINS   FOG       57  57 100 VRB3      29.96F VSB 1/4
ISLIP          CLOUDY    61  61 100 SW10      29.99F
NEW YORK CITY  FOG       58  56  93 E5        29.96F VSB 1/4
CENTRAL PARK   CLOUDY    59  58  96 CALM      30.00F FOG
$$

NYZ005>009-017-018-044>046-055-056-201000-
CENTRAL


CITY           SKY/WX    TMP DP  RH WIND       PRES   REMARKS
FULTON         CLOUDY    64  59  83 S8        29.83F
SYRACUSE       LGT RAIN  65  62  90 SW10      29.83F
ROME           CLOUDY    61  61 100 E5        29.86F
ELMIRA         CLOUDY    63  60  90 W3        29.89F
BINGHAMTON     CLOUDY    60  58  92 SW9       29.92F
$$

NYZ026>034-041>043-087-201000-
NORTH


CITY           SKY/WX    TMP DP  RH WIND       PRES   REMARKS
WATERTOWN      CLOUDY    64  60  87 SW12G20   29.81S
FORT DRUM      NOT AVBL
OGDENSBURG     RAIN      61  58  91 SW7       29.79R
MASSENA        HVY RAIN  61  61 100 W10       29.80R FOG
SARANAC LAKE   CLOUDY    58  58 100 SW9       29.81F
PLATTSBURGH    MOCLDY    54  52  93 SE7       29.77F
$$

NYZ001>004-010>016-019>021-085-201000-
WEST


CITY           SKY/WX    TMP DP  RH WIND       PRES   REMARKS
NIAGARA FALLS  CLOUDY    62  57  83 NW17      29.89R
BUFFALO        CLOUDY    61  56  83 SW8       29.89R HAZE
DUNKIRK        LGT RAIN  58  58 100 SW10      29.93R FOG
JAMESTOWN      LGT RAIN  60  59  96 W10       29.96R FOG
WELLSVILLE     CLOUDY    63  62  97 W8        29.94S
ROCHESTER      RAIN      64  62  93 W5        29.85R FOG
PENN YAN       MOCLDY    62  58  86 S7        29.87S
$$

             KEY
       WCI = WIND CHILL INDEX
       VSB = VISIBILITY
       HX  = HEAT INDEX
$$




USA.gov is the U.S. government's official web portal to all federal, state and local government web resources and services.